HST 1 20580U 90037B 25142.52644450 .00005376 00000-0 20070-3 0 9991 2 20580 28.4679 218.8202 0002743 155.9393 204.1329 15.25062245728760 ISS (ZARYA) 1 25544U 98067A 25143.33780704 .00008883 00000-0 16527-3 0 9998 2 25544 51.6384 70.1821 0002507 135.2816 10.7078 15.49679665511309 CXO 1 25867U 99040B 25145.63205767 .00000510 00000-0 00000-0 0 9999 2 25867 49.0431 130.7336 8462919 309.1598 359.7113 0.37809466 15859